[[{"header":{"parameterUnit":"m.s-1","parameterCategory":1,"la1":30.2991,"la2":30.254,"lo1":-89.0895,"lo2":-89.0444,"dy":0.0017,"dx":0.0017,"nx":28,"ny":28,"refTime":"2025-03-09T03:00:00:Z","depth":0,"parameterNumber":2,"parameterNumberName":"U-component_of_WINDS"},"data":[0,0,0,0,0,0,0,0,0,0,0,0,0,0,0,0,0,0,0,0,0,0,0,0,0,0,0,0,0,0,0,0,0,0,0,0,0,0,0,0,0,0,0,0,0,0,0,0,0,0,0,0,0,0,0,0,0,0,1.6847,1.6848,0,1.6915,1.6916,1.6917,1.6909,1.6908,1.6907,1.6906,1.698,1.6983,1.6986,0,0,0,0,0,0,0,0,0,0,0,0,0,1.6715,1.6717,1.6847,1.6848,1.6849,1.6915,1.6916,1.6917,1.6909,1.6908,1.6906,1.6905,1.6979,1.6983,1.6987,0,0,0,0,0,0,0,0,0,0,0,0,0,1.6777,1.6718,1.6847,1.6853,1.6854,1.6915,1.6916,1.6918,1.6909,1.6908,1.6906,1.6904,1.6978,1.6983,1.6987,1.7049,0,0,1.7001,1.7003,0,0,0,0,0,0,0,0,1.6773,1.6782,1.6851,1.6852,1.6854,1.6902,1.6897,1.6962,1.691,1.6888,1.6906,1.6904,1.6956,1.6962,1.6979,1.7052,1.7055,1.7001,1.7004,1.7006,1.7007,0,0,0,0,0,0,0,1.6769,1.6779,1.6874,1.6852,1.6854,1.6854,1.6861,1.6909,1.6931,1.689,1.689,1.6898,1.6956,1.6975,1.6981,1.7057,1.7001,1.7005,1.7008,1.701,1.7187,1.7189,0,0,0,0,0,0,1.6763,1.6775,1.6872,1.6876,1.6808,1.6857,1.6865,1.6888,1.693,1.6935,1.6899,1.6897,1.6968,1.6975,1.6983,1.706,1.7006,1.701,1.7013,1.7185,1.7187,1.719,0,0,0,0,0,0,1.676,1.6771,1.6869,1.6826,1.6838,1.6861,1.6887,1.689,1.6908,1.6937,1.6941,1.6913,1.6967,1.6977,1.7033,1.7062,1.7012,1.7017,1.7183,1.7186,1.7188,1.7213,0,0,0,0,0,0,1.6756,1.677,1.6792,1.6826,1.684,1.6916,1.6889,1.6893,1.6916,1.6914,1.6951,1.6956,1.6966,1.7026,1.7037,1.7068,1.702,1.718,1.7184,1.7188,1.7209,1.7216,1.7222,0,0,0,0,0,1.6751,1.6797,1.6794,1.6805,1.6868,1.6918,1.6926,1.6935,1.6918,1.6942,1.696,1.6955,1.7057,1.7032,1.7044,1.7077,1.7178,1.7183,1.7187,1.7207,1.7215,1.7222,0,0,0,0,0,0,1.6767,1.6801,1.6798,1.6856,1.6884,1.6916,1.6946,1.6943,1.6978,1.6975,1.6986,1.6995,1.7052,1.707,1.7041,1.714,1.7116,1.7123,1.7126,1.7134,1.714,1.7135,1.7024,0,0,0,0,0,1.6777,1.6813,1.6841,1.689,1.6904,1.6922,1.6944,1.6949,1.6979,1.6991,1.7014,1.7045,1.7085,1.711,1.7148,1.7212,1.7221,1.724,1.7247,1.7252,1.7258,1.7296,1.7306,1.7204,1.7204,1.7204,0,0,1.6799,1.6822,1.6844,1.6893,1.6916,1.6954,1.6933,1.6974,1.7003,1.6998,1.7053,1.7071,1.7106,1.7167,1.7195,1.7184,1.7288,1.7257,1.7261,1.7265,1.7302,1.7311,1.732,1.7207,1.7207,1.7206,0,0,1.6858,1.6878,1.6921,1.6944,1.6978,1.699,1.7001,1.7034,1.7045,1.71,1.7097,1.7134,1.72,1.7227,1.7249,1.732,1.7317,1.7332,1.7365,1.7402,1.741,1.7417,1.7444,1.7454,1.7338,1.7338,1.7338,0,1.6881,1.6937,1.6944,1.6986,1.7009,1.7005,1.7051,1.7073,1.7118,1.7135,1.7121,1.7207,1.723,1.7298,1.7316,1.7333,1.7347,1.7328,1.7407,1.7415,1.7422,1.7448,1.7458,1.734,1.7339,1.7339,1.7339,0,1.6965,1.7004,1.7035,1.7078,1.7104,1.7148,1.7164,1.719,1.7193,1.7208,1.7265,1.7293,1.7337,1.7354,1.7357,1.7423,1.7415,1.7404,1.7381,1.7433,1.7458,1.7468,1.7342,1.7341,1.7341,1.734,0,0,1.7036,1.7082,1.7094,1.7114,1.7151,1.7183,1.7228,1.727,1.7293,1.7325,1.7364,1.7422,1.7412,1.7437,1.7444,1.7476,1.7533,1.7462,1.7463,1.7476,1.7611,1.762,1.7631,1.7531,1.7533,1.7535,1.7609,0,1.71,1.7177,1.7185,1.7255,1.7293,1.729,1.733,1.7358,1.7374,1.741,1.7427,1.7469,1.7452,1.7467,1.7499,1.752,1.7561,1.7514,1.7571,1.7572,1.7563,1.7644,1.7654,1.7722,1.7618,1.762,1.7621,0,1.7185,1.7218,1.7291,1.7325,1.7341,1.7376,1.7417,1.745,1.7484,1.7493,1.7522,1.7525,1.7573,1.7547,1.7616,1.7584,1.7607,1.7621,1.7624,1.7631,1.7601,1.7655,1.7744,1.7755,1.7636,1.7635,1.7634,0,1.7232,1.7295,1.7347,1.7364,1.7405,1.743,1.7448,1.748,1.7505,1.7541,1.7559,1.76,1.7624,1.7657,1.7672,1.7651,1.7741,1.7715,1.7752,1.7752,1.7772,1.7771,1.7868,1.7785,1.7785,1.7784,1.7784,0,1.7303,1.7349,1.7369,1.7401,1.7453,1.7463,1.7515,1.7533,1.7561,1.7599,1.76,1.7636,1.7652,1.7692,1.7704,1.7761,1.7771,1.7781,1.7784,1.7782,1.7781,1.7799,1.7795,1.7787,1.7787,1.7786,1.7786,0,1.7365,1.738,1.7437,1.7471,1.748,1.7517,1.7547,1.758,1.7595,1.7643,1.7655,1.768,1.7726,1.7744,1.7801,1.7809,1.7875,1.7874,1.7864,1.7865,1.7902,1.7899,1.8015,1.8032,1.7936,1.7937,1.7937,0,1.741,1.7445,1.7482,1.7507,1.7526,1.7565,1.7591,1.7604,1.7631,1.7673,1.7702,1.7747,1.7785,1.786,1.7884,1.7928,1.7929,1.7966,1.7936,1.7933,1.7932,1.7931,1.7935,1.7973,1.7974,1.7974,1.7975,0,1.749,1.7496,1.7532,1.7572,1.7603,1.7635,1.7666,1.7687,1.7705,1.7736,1.7783,1.7812,1.787,1.7917,1.7962,1.7984,1.7984,1.7984,1.7996,1.7995,1.7988,1.7994,1.7881,1.7982,1.7981,1.7981,1.798,1.798,1.7546,1.7578,1.7609,1.7651,1.7676,1.7705,1.7738,1.7757,1.7796,1.7843,1.7849,1.79,1.7935,1.7996,1.802,1.8062,1.8052,1.8068,1.8072,1.8077,1.808,1.798,1.807,1.807,1.8069,1.8069,1.8069,0,1.7628,1.7648,1.7686,1.773,1.7763,1.7758,1.7793,1.7822,1.7866,1.7898,1.7935,1.799,1.8035,1.8064,1.811,1.8138,1.814,1.8151,1.815,1.8155,1.8085,1.8071,1.8149,1.8149,1.8149,1.8149,1.8149,1.8149,1.7674,1.7728,1.7738,1.7806,1.7826,1.7875,1.7896,1.7924,1.795,1.8011,1.8048,1.8066,1.8097,1.8146,1.8189,1.8196,1.8215,1.8227,1.8234,1.8168,1.816,1.8152,1.8139,1.823,1.823,1.8301,1.8301,1.8302]},{"header":{"parameterUnit":"m.s-1","parameterCategory":1,"la1":30.2991,"la2":30.254,"lo1":-89.0895,"lo2":-89.0444,"dy":0.0017,"dx":0.0017,"nx":28,"ny":28,"refTime":"2025-03-09T03:00:00:Z","depth":0,"parameterNumber":3,"parameterNumberName":"V-component_of_WINDS"},"data":[0,0,0,0,0,0,0,0,0,0,0,0,0,0,0,0,0,0,0,0,0,0,0,0,0,0,0,0,0,0,0,0,0,0,0,0,0,0,0,0,0,0,0,0,0,0,0,0,0,0,0,0,0,0,0,0,0,0,-0.8045,-0.8044,0,-0.7945,-0.7944,-0.7943,-0.7956,-0.7958,-0.7959,-0.7961,-0.7857,-0.7853,-0.7849,0,0,0,0,0,0,0,0,0,0,0,0,0,-0.8246,-0.8242,-0.8045,-0.8044,-0.8042,-0.7945,-0.7944,-0.7942,-0.7956,-0.7958,-0.796,-0.7962,-0.7859,-0.7853,-0.7848,0,0,0,0,0,0,0,0,0,0,0,0,0,-0.8153,-0.8241,-0.8045,-0.8037,-0.8036,-0.7945,-0.7944,-0.7942,-0.7955,-0.7958,-0.796,-0.7963,-0.786,-0.7854,-0.7848,-0.7758,0,0,-0.7828,-0.7825,0,0,0,0,0,0,0,0,-0.8159,-0.8146,-0.804,-0.8038,-0.8036,-0.7965,-0.7976,-0.788,-0.7955,-0.7986,-0.7961,-0.7964,-0.7891,-0.7882,-0.7858,-0.7753,-0.7749,-0.7827,-0.7823,-0.7821,-0.7819,0,0,0,0,0,0,0,-0.8165,-0.815,-0.8005,-0.8038,-0.8036,-0.8038,-0.8028,-0.7958,-0.7926,-0.7983,-0.7984,-0.7972,-0.789,-0.7864,-0.7856,-0.7747,-0.7827,-0.7822,-0.7818,-0.7815,-0.7562,-0.7559,0,0,0,0,0,0,-0.8174,-0.8156,-0.8009,-0.8002,-0.8105,-0.8033,-0.8021,-0.7986,-0.7927,-0.792,-0.797,-0.7973,-0.7874,-0.7863,-0.7852,-0.7742,-0.7821,-0.7815,-0.7811,-0.7565,-0.7561,-0.7558,0,0,0,0,0,0,-0.8178,-0.816,-0.8013,-0.8079,-0.8061,-0.8027,-0.7987,-0.7982,-0.7956,-0.7917,-0.7911,-0.7949,-0.7876,-0.7861,-0.7781,-0.7738,-0.7812,-0.7806,-0.7568,-0.7564,-0.756,-0.7521,0,0,0,0,0,0,-0.8184,-0.8162,-0.8128,-0.8078,-0.8057,-0.7943,-0.7984,-0.7978,-0.7945,-0.7948,-0.7895,-0.7889,-0.7876,-0.7791,-0.7775,-0.7731,-0.7801,-0.7572,-0.7566,-0.7561,-0.7526,-0.7516,-0.7508,0,0,0,0,0,-0.8191,-0.8121,-0.8126,-0.8108,-0.8014,-0.7941,-0.7929,-0.7916,-0.7942,-0.7906,-0.7881,-0.7891,-0.7746,-0.7782,-0.7764,-0.7718,-0.7575,-0.7568,-0.7562,-0.753,-0.7518,-0.7508,0,0,0,0,0,0,-0.8166,-0.8115,-0.812,-0.8032,-0.7991,-0.7943,-0.7899,-0.7904,-0.7854,-0.7859,-0.7845,-0.7833,-0.7751,-0.7727,-0.7768,-0.7627,-0.7664,-0.7653,-0.7646,-0.7634,-0.7625,-0.7631,-0.7795,0,0,0,0,0,-0.8151,-0.8097,-0.8054,-0.7981,-0.796,-0.7933,-0.7901,-0.7894,-0.7851,-0.7834,-0.7802,-0.776,-0.7704,-0.7668,-0.7615,-0.7523,-0.7511,-0.7483,-0.7473,-0.7466,-0.7456,-0.7404,-0.739,-0.7537,-0.7537,-0.7538,0,0,-0.8118,-0.8083,-0.805,-0.7975,-0.7942,-0.7885,-0.7918,-0.7857,-0.7814,-0.7824,-0.7746,-0.7722,-0.7673,-0.7586,-0.7546,-0.7563,-0.7414,-0.7458,-0.7452,-0.7447,-0.7396,-0.7382,-0.737,-0.7533,-0.7534,-0.7534,0,0,-0.8029,-0.7998,-0.7932,-0.7899,-0.7849,-0.7832,-0.7816,-0.7768,-0.7752,-0.7673,-0.7679,-0.7628,-0.7534,-0.7498,-0.7468,-0.7365,-0.7371,-0.7348,-0.7299,-0.7248,-0.7236,-0.7226,-0.7187,-0.7174,-0.7339,-0.7339,-0.7339,0,-0.7994,-0.7909,-0.7898,-0.7835,-0.7802,-0.7809,-0.7741,-0.771,-0.7645,-0.7621,-0.7642,-0.7522,-0.749,-0.7394,-0.7369,-0.7345,-0.7325,-0.7353,-0.7239,-0.7229,-0.7219,-0.7182,-0.7167,-0.7336,-0.7337,-0.7337,-0.7337,0,-0.7868,-0.7809,-0.7762,-0.7699,-0.766,-0.7596,-0.7574,-0.7536,-0.7533,-0.7513,-0.7433,-0.7395,-0.7333,-0.731,-0.7307,-0.7213,-0.7225,-0.7243,-0.7278,-0.7202,-0.7167,-0.7153,-0.7333,-0.7334,-0.7334,-0.7335,0,0,-0.7759,-0.7691,-0.7674,-0.7644,-0.759,-0.7544,-0.7479,-0.742,-0.7386,-0.7342,-0.7286,-0.7206,-0.7222,-0.7187,-0.718,-0.7136,-0.7054,-0.7158,-0.7157,-0.7138,-0.6946,-0.6932,-0.6916,-0.7059,-0.7056,-0.7054,-0.695,0,-0.7663,-0.7549,-0.7537,-0.7435,-0.7379,-0.7385,-0.7328,-0.7288,-0.7268,-0.7217,-0.7195,-0.7138,-0.7163,-0.7142,-0.7099,-0.7073,-0.7015,-0.7081,-0.7006,-0.7003,-0.7015,-0.6898,-0.6882,-0.6786,-0.6936,-0.6934,-0.6932,0,-0.7535,-0.7486,-0.7379,-0.733,-0.7307,-0.7256,-0.72,-0.7152,-0.7106,-0.7095,-0.7056,-0.7054,-0.6987,-0.7027,-0.6933,-0.6978,-0.6947,-0.693,-0.6926,-0.6916,-0.6961,-0.6883,-0.6755,-0.6739,-0.6911,-0.6912,-0.6914,0,-0.7464,-0.7372,-0.7295,-0.727,-0.7213,-0.7177,-0.7151,-0.7108,-0.7072,-0.7023,-0.7,-0.6944,-0.6912,-0.6869,-0.6852,-0.6883,-0.6758,-0.6797,-0.6745,-0.6745,-0.6717,-0.6718,-0.6579,-0.67,-0.6701,-0.6701,-0.6701,0,-0.7357,-0.729,-0.7262,-0.7214,-0.7139,-0.7126,-0.7052,-0.7028,-0.699,-0.6937,-0.6939,-0.689,-0.6871,-0.6818,-0.6805,-0.6728,-0.6715,-0.6703,-0.6699,-0.6701,-0.6702,-0.6679,-0.6684,-0.6697,-0.6698,-0.6699,-0.6699,0,-0.7264,-0.7243,-0.7159,-0.7111,-0.7098,-0.7044,-0.7003,-0.6957,-0.6938,-0.6871,-0.6854,-0.6824,-0.6761,-0.6741,-0.6666,-0.6657,-0.6567,-0.6571,-0.6582,-0.6581,-0.6529,-0.6533,-0.6368,-0.6345,-0.6483,-0.6482,-0.6481,0,-0.7196,-0.7144,-0.7091,-0.7056,-0.7029,-0.6972,-0.6936,-0.6921,-0.6882,-0.6826,-0.6786,-0.6725,-0.6675,-0.6575,-0.6546,-0.6488,-0.6489,-0.6436,-0.6481,-0.6483,-0.6486,-0.6488,-0.6482,-0.6426,-0.6425,-0.6424,-0.6423,0,-0.7076,-0.7068,-0.7015,-0.6958,-0.6915,-0.6869,-0.6825,-0.6796,-0.6775,-0.6732,-0.6668,-0.6629,-0.6553,-0.6491,-0.6432,-0.6405,-0.6409,-0.6409,-0.6394,-0.6394,-0.6401,-0.6394,-0.6556,-0.6412,-0.6413,-0.6414,-0.6415,-0.6415,-0.6992,-0.6946,-0.69,-0.6841,-0.6807,-0.6766,-0.6719,-0.6694,-0.6641,-0.6576,-0.6571,-0.6502,-0.6457,-0.6379,-0.6349,-0.6295,-0.631,-0.6288,-0.6282,-0.6276,-0.6271,-0.6412,-0.6284,-0.6284,-0.6285,-0.6285,-0.6285,0,-0.687,-0.6842,-0.6787,-0.6725,-0.6679,-0.6688,-0.664,-0.66,-0.6539,-0.6497,-0.6447,-0.6373,-0.6313,-0.628,-0.622,-0.6182,-0.6183,-0.6167,-0.6168,-0.6162,-0.6262,-0.628,-0.6167,-0.6167,-0.6167,-0.6168,-0.6168,-0.6168,-0.6801,-0.6723,-0.671,-0.6614,-0.6586,-0.6518,-0.6489,-0.6451,-0.6417,-0.6334,-0.6284,-0.6263,-0.6224,-0.6161,-0.6106,-0.6098,-0.6074,-0.6056,-0.6049,-0.6143,-0.6155,-0.6166,-0.6183,-0.6052,-0.6052,-0.5953,-0.5953,-0.5952]}]]